Weather History for Kahului, HI

Change the Weather History Date:

Monday, December 13, 2010

  Actual Average Record
Temperature  
Mean Temperature 74 °F 74 °F  
Max Temperature 84 °F 82 °F 90 °F (1991)
Min Temperature 64 °F 65 °F 55 °F (1972)
Degree Days  
Heating Degree Days 0 0  
Month to date heating degree days 0 0  
Since 1 July heating degree days 0 0  
Cooling Degree Days 9 9  
Month to date cooling degree days 110 119  
Year to date cooling degree days 3813 3826  
Growing Degree Days 23 (Base 50)    
Moisture  
Dew Point 66 °F    
Average Humidity 76    
Maximum Humidity 93    
Minimum Humidity 58    
Precipitation  
Precipitation 0.00 in 0.11 in 2.02 in (1996)
Month to date precipitation 1.73 1.35  
Year to date precipitation 7.65 15.83  
Snow  
Snow 0.00 in - - ()
Month to date snowfall 0.0  
Since 1 July snowfall 0.0  
Snow Depth 0.00 in    
Sea Level Pressure  
Sea Level Pressure 29.99 in    
Wind  
Wind Speed 5 mph (NE)    
Max Wind Speed 10 mph    
Max Gust Speed 15 mph    
Visibility 10 miles    
Events      
T = Trace of Precipitation, MM = Missing Value Source: NWS Daily Summary

Daily Weather History Graph

Daily Weather History Graph

Search for Another Location

Airport:

Trip Planner

Search our weather history database for the weather conditions in past years. The results will help you decide how hot, cold, wet, or windy it might be!

Date:

Astronomy

Dec. 13, 2010 Rise Set
Actual Time 6:53 AM HST 5:46 PM HST
Civil Twilight 6:29 AM HST 6:10 PM HST
Nautical Twilight 6:01 AM HST 6:38 PM HST
Astronomical Twilight 5:34 AM HST 7:05 PM HST
Moon 12:27 PM HST (12/13) 12:11 AM HST (12/13)
Length of Visible Light 11h 41m
Length of Day
10h 52m
First Quarter, 53% of the Moon is Illuminated
Dec 13
First Quarter
Dec 20
Full
Dec 27
Last Quarter
Jan 3
New
Jan 12
First Quarter

Hourly Weather History & Observations

Time (HST) Temp. Heat Index Dew Point Humidity Pressure Visibility Wind Dir Wind Speed Gust Speed Precip Events Conditions
12:54 AM 68.0 °F - 63.0 °F 84% 29.99 in 10.0 mi SE 6.9 mph - N/A   Overcast
1:54 AM 66.9 °F - 63.0 °F 87% 29.98 in 10.0 mi SSE 4.6 mph - N/A   Partly Cloudy
2:54 AM 66.9 °F - 64.0 °F 90% 29.96 in 10.0 mi SSE 3.5 mph - N/A   Mostly Cloudy
3:54 AM 66.9 °F - 63.0 °F 87% 29.96 in 10.0 mi SE 6.9 mph - N/A   Clear
4:54 AM 64.9 °F - 62.1 °F 90% 29.97 in 10.0 mi South 4.6 mph - N/A   Clear
5:54 AM 66.0 °F - 63.0 °F 90% 29.98 in 10.0 mi SSE 8.1 mph - N/A   Clear
6:54 AM 66.0 °F - 63.0 °F 90% 29.99 in 10.0 mi Calm Calm - N/A   Partly Cloudy
7:54 AM 69.1 °F - 64.0 °F 84% 30.01 in 10.0 mi Calm Calm - N/A   Partly Cloudy
8:54 AM 75.0 °F - 66.0 °F 73% 30.02 in 10.0 mi SW 3.5 mph - N/A   Clear
9:54 AM 78.1 °F - 66.9 °F 68% 30.03 in 10.0 mi WSW 3.5 mph - N/A   Clear
10:54 AM 80.1 °F 82.3 °F 66.9 °F 64% 30.01 in 10.0 mi Variable 4.6 mph - N/A   Clear
11:54 AM 81.0 °F 83.3 °F 66.9 °F 62% 29.99 in 10.0 mi NE 9.2 mph - N/A   Partly Cloudy
12:54 PM 82.9 °F 85.8 °F 68.0 °F 60% 29.96 in 10.0 mi North 9.2 mph - N/A   Partly Cloudy
1:54 PM 82.0 °F 84.5 °F 66.9 °F 60% 29.94 in 10.0 mi North 8.1 mph - N/A   Partly Cloudy
2:54 PM 81.0 °F 84.4 °F 69.8 °F 69% 29.93 in 10.0 mi North 6.9 mph - N/A   Partly Cloudy
3:54 PM 81.0 °F 83.8 °F 68.0 °F 65% 29.94 in 10.0 mi NE 5.8 mph - N/A   Clear
4:54 PM 79.0 °F - 68.0 °F 69% 29.97 in 10.0 mi NNE 5.8 mph - N/A   Partly Cloudy
5:54 PM 78.1 °F - 68.0 °F 71% 29.99 in 10.0 mi NNW 4.6 mph - N/A   Mostly Cloudy
6:54 PM 77.0 °F - 69.1 °F 76% 30.02 in 10.0 mi NW 4.6 mph - N/A   Mostly Cloudy
7:54 PM 75.9 °F - 69.1 °F 79% 30.04 in 10.0 mi NW 5.8 mph - N/A   Scattered Clouds
8:54 PM 75.9 °F - 69.1 °F 79% 30.05 in 10.0 mi NW 5.8 mph - N/A   Clear
9:54 PM 73.0 °F - 68.0 °F 84% 30.05 in 8.0 mi Calm Calm - N/A   Clear
10:54 PM 71.1 °F - 66.9 °F 87% 30.04 in 8.0 mi Calm Calm - N/A   Clear
11:54 PM 70.0 °F - 66.0 °F 87% 30.03 in 10.0 mi SE 3.5 mph - N/A   Clear